Beatrice, NE

3:13 PM CST on December 15, 2019 (GMT -0600)
Beatrice Municipal

Weather History for KBIE - October, 2019

Change the Weather History Date:

Tuesday, October 1, 2019

  Actual Average Record
Temperature  
Mean Temperature 67 °F -  
Max Temperature 79 °F 78 °F 95 °F (1952)
Min Temperature 55 °F 49 °F 31 °F (1958)
Cooling Degree Days 2    
Growing Degree Days 17 (Base 50)    
Moisture  
Dew Point 69 °F    
Average Humidity 91    
Maximum Humidity 100    
Minimum Humidity 77    
Precipitation  
Precipitation 1.07 in - - ()
Sea Level Pressure  
Sea Level Pressure 29.87 in    
Wind  
Wind Speed 9 mph (SW)    
Max Wind Speed 15 mph    
Max Gust Speed 23 mph    
Visibility 8 miles    
Events Rain , Thunderstorm    
Averages and records for this station are not official NWS values.
T = Trace of Precipitation, MM = Missing Value Source: NWS Daily Summary

Daily Weather History Graph

Daily Weather History Graph

Search for Another Location

Airport or City:

Astronomy

Oct. 01, 2019 Rise Set
Actual Time 7:23 AM CDT 7:09 PM CDT
Civil Twilight 6:56 AM CDT 7:36 PM CDT
Nautical Twilight 6:24 AM CDT 8:08 PM CDT
Astronomical Twilight 5:52 AM CDT 8:39 PM CDT
Moon 10:40 AM CDT (10/1) 9:23 PM CDT (10/1)
Length of Visible Light 12h 40m
Length of Day
11h 46m
Waxing Crescent, 12% of the Moon is Illuminated
Oct 1
Waxing Crescent
Oct 5
First Quarter
Oct 13
Full
Oct 21
Last Quarter
Oct 27
New

Hourly Weather History & Observations

Time (CDT) Temp. Dew Point Humidity Pressure Visibility Wind Dir Wind Speed Gust Speed Precip Events Conditions
12:15 AM 79.3 °F 71.6 °F 77% 29.85 in 10.0 mi SSW 11.5 mph 17.3 mph N/A   Clear
12:35 AM 79.2 °F 71.6 °F 78% 29.84 in 10.0 mi South 12.7 mph - N/A   Clear
12:55 AM 79.3 °F 71.6 °F 77% 29.84 in 10.0 mi South 15.0 mph 20.7 mph N/A   Clear
1:15 AM 78.3 °F 71.8 °F 80% 29.84 in 10.0 mi South 10.4 mph 16.1 mph N/A   Light Drizzle
1:35 AM 78.1 °F 71.8 °F 81% 29.85 in 10.0 mi South 8.1 mph - N/A   Clear
1:55 AM 77.9 °F 71.6 °F 81% 29.84 in 10.0 mi South 9.2 mph - N/A   Clear
2:15 AM 77.4 °F 71.8 °F 83% 29.85 in 10.0 mi South 6.9 mph - N/A   Clear
2:35 AM 77.4 °F 71.6 °F 82% 29.85 in 10.0 mi South 9.2 mph - N/A   Clear
2:55 AM 77.4 °F 71.8 °F 83% 29.85 in 10.0 mi South 9.2 mph 17.3 mph N/A   Clear
3:15 AM 77.2 °F 71.8 °F 83% 29.86 in 10.0 mi South 9.2 mph - N/A   Clear
3:35 AM 77.0 °F 72.0 °F 84% 29.85 in 10.0 mi Calm Calm - N/A   Clear
3:55 AM 77.0 °F 72.0 °F 84% 29.85 in 10.0 mi South 10.4 mph 18.4 mph N/A   Clear
4:15 AM 76.5 °F 72.0 °F 86% 29.85 in 10.0 mi South 11.5 mph - N/A   Clear
4:35 AM 76.3 °F 72.0 °F 86% 29.86 in 10.0 mi South 9.2 mph - N/A   Scattered Clouds
4:55 AM 76.1 °F 72.1 °F 87% 29.86 in 10.0 mi South 8.1 mph - N/A   Mostly Cloudy
5:15 AM 75.7 °F 72.1 °F 89% 29.86 in 10.0 mi South 5.8 mph - N/A   Overcast
5:35 AM 75.6 °F 72.1 °F 89% 29.87 in 10.0 mi South 8.1 mph - N/A   Overcast
5:55 AM 75.2 °F 72.5 °F 91% 29.87 in 10.0 mi South 6.9 mph - N/A   Overcast
6:15 AM 75.4 °F 72.5 °F 91% 29.87 in 10.0 mi South 9.2 mph - N/A   Overcast
6:35 AM 75.2 °F 72.1 °F 90% 29.87 in 10.0 mi South 10.4 mph - N/A   Mostly Cloudy
6:50 AM 75.2 °F 72.1 °F 90% 29.87 in 10.0 mi South 8.1 mph - N/A   Scattered Clouds
7:15 AM 75.2 °F 72.1 °F 90% 29.87 in 10.0 mi South 10.4 mph - N/A   Scattered Clouds
7:35 AM 75.2 °F 72.1 °F 90% 29.87 in 10.0 mi South 12.7 mph 16.1 mph N/A   Scattered Clouds
7:55 AM 75.2 °F 71.8 °F 89% 29.87 in 10.0 mi South 11.5 mph 18.4 mph N/A   Mostly Cloudy
8:15 AM 75.4 °F 72.1 °F 90% 29.87 in 10.0 mi South 10.4 mph 18.4 mph N/A   Scattered Clouds
8:35 AM 75.4 °F 72.0 °F 89% 29.88 in 10.0 mi South 11.5 mph - N/A   Scattered Clouds
8:55 AM 75.7 °F 72.0 °F 88% 29.88 in 10.0 mi SSW 10.4 mph - N/A   Scattered Clouds
9:15 AM 76.5 °F 72.5 °F 87% 29.88 in 10.0 mi South 9.2 mph - N/A   Scattered Clouds
9:35 AM 77.0 °F 72.5 °F 86% 29.88 in 10.0 mi SSW 12.7 mph - N/A   Mostly Cloudy
9:55 AM 77.2 °F 72.5 °F 85% 29.88 in 10.0 mi SSW 10.4 mph - N/A   Overcast
10:15 AM 77.0 °F 72.5 °F 86% 29.89 in 10.0 mi SSW 9.2 mph - N/A   Overcast
10:35 AM 77.0 °F 72.5 °F 86% 29.90 in 10.0 mi SSW 6.9 mph - N/A Thunderstorm Overcast
10:55 AM 76.5 °F 72.9 °F 89% 29.89 in 10.0 mi SSW 4.6 mph - N/A Thunderstorm Thunderstorm
11:15 AM 75.9 °F 73.8 °F 93% 29.90 in 1.5 mi SSW 6.9 mph - 0.12 in   Overcast
11:35 AM 75.6 °F 73.8 °F 94% 29.89 in 7.0 mi South 8.1 mph - 0.12 in Rain Light Rain
11:55 AM 75.4 °F 73.9 °F 95% 29.89 in 10.0 mi South 3.5 mph - 0.13 in Thunderstorm Overcast
12:15 PM 75.9 °F 74.3 °F 95% 29.89 in 5.0 mi SW 5.8 mph - 0.01 in Rain , Thunderstorm Rain
12:35 PM 77.0 °F 74.7 °F 92% 29.88 in 10.0 mi WSW 5.8 mph - 0.01 in   Overcast
12:55 PM 77.0 °F 72.3 °F 85% 29.86 in 10.0 mi SW 5.8 mph - 0.01 in   Overcast
1:15 PM 77.2 °F 72.9 °F 86% 29.87 in 10.0 mi WSW 5.8 mph - N/A   Overcast
1:35 PM 77.4 °F 72.3 °F 84% 29.85 in 10.0 mi Calm Calm - N/A   Overcast
1:55 PM 78.8 °F 72.3 °F 80% 29.84 in 10.0 mi Calm Calm - N/A   Overcast
2:15 PM 78.3 °F 72.1 °F 81% 29.83 in 10.0 mi Calm Calm - N/A   Mostly Cloudy
2:35 PM 77.5 °F 73.8 °F 88% 29.82 in 7.0 mi North 10.4 mph - N/A Rain Light Rain
2:55 PM 73.9 °F 71.8 °F 93% 29.82 in 10.0 mi North 10.4 mph - N/A   Overcast
3:15 PM 66.9 °F 65.5 °F 95% 29.81 in 5.0 mi North 15.0 mph 23.0 mph 0.02 in Rain Heavy Rain
3:35 PM 66.2 °F 65.5 °F 98% 29.84 in 2.5 mi WNW 10.4 mph - 0.09 in Rain , Thunderstorm Rain
3:55 PM 69.1 °F 68.9 °F 99% 29.82 in 2.0 mi West 6.9 mph - 0.46 in   Overcast
4:15 PM 69.4 °F 68.9 °F 98% 29.82 in 1.8 mi Calm Calm - 0.10 in Rain , Thunderstorm Thunderstorms and Rain
4:35 PM 69.8 °F 69.8 °F 100% 29.82 in 5.0 mi North 3.5 mph - 0.16 in Rain , Thunderstorm Rain
4:55 PM 70.0 °F 69.8 °F 99% 29.82 in 4.0 mi NE 3.5 mph - 0.20 in Rain Light Rain
5:15 PM 69.6 °F 69.3 °F 99% 29.82 in 7.0 mi East 3.5 mph - N/A Rain Light Rain
5:35 PM 69.4 °F 69.3 °F 99% 29.83 in 7.0 mi North 4.6 mph - N/A Rain Light Rain
5:55 PM 68.9 °F 68.5 °F 99% 29.81 in 7.0 mi North 9.2 mph - 0.02 in Rain Light Rain
6:15 PM 65.8 °F 65.7 °F 99% 29.84 in 10.0 mi North 12.7 mph - N/A Rain Light Rain
6:35 PM 63.0 °F 62.8 °F 99% 29.84 in 10.0 mi North 13.8 mph - 0.02 in Rain Light Rain
6:55 PM 62.1 °F 61.9 °F 99% 29.84 in 10.0 mi NNE 8.1 mph - 0.03 in Rain Light Rain
7:15 PM 61.7 °F 61.7 °F 100% 29.83 in 7.0 mi North 10.4 mph - 0.02 in Rain Light Rain
7:35 PM 61.2 °F 61.0 °F 99% 29.86 in 5.0 mi NW 4.6 mph - 0.04 in Rain Light Rain
7:55 PM 60.4 °F 60.4 °F 100% 29.87 in 5.0 mi North 12.7 mph - 0.07 in Rain Rain
8:15 PM 59.9 °F 59.7 °F 99% 29.90 in 5.0 mi NNW 10.4 mph - 0.01 in Rain Light Rain
8:35 PM 59.5 °F 59.4 °F 99% 29.89 in 7.0 mi North 9.2 mph - 0.03 in Rain Light Rain
8:55 PM 59.0 °F 58.8 °F 99% 29.89 in 4.0 mi North 9.2 mph - 0.06 in Rain Rain
9:15 PM 58.1 °F 58.1 °F 100% 29.90 in 3.0 mi NNW 6.9 mph - 0.05 in Rain Light Rain
9:35 PM 57.9 °F 57.9 °F 100% 29.91 in 3.0 mi North 9.2 mph - 0.07 in   Light Drizzle
9:55 PM 57.7 °F 57.7 °F 100% 29.91 in 7.0 mi NNW 9.2 mph - 0.08 in   Overcast
10:15 PM 57.4 °F 57.4 °F 100% 29.91 in 5.0 mi North 12.7 mph - 0.01 in   Overcast
10:35 PM 57.2 °F 57.2 °F 100% 29.92 in 7.0 mi NNW 11.5 mph - 0.01 in   Overcast
10:55 PM 56.3 °F 55.9 °F 99% 29.93 in 10.0 mi NNW 11.5 mph - 0.01 in   Overcast
11:15 PM 55.9 °F 55.8 °F 99% 29.94 in 10.0 mi NNW 12.7 mph 17.3 mph N/A   Overcast
11:35 PM 55.6 °F 55.6 °F 100% 29.94 in 10.0 mi NNW 10.4 mph - N/A   Overcast
11:55 PM 55.6 °F 55.6 °F 100% 29.94 in 10.0 mi NNW 11.5 mph - N/A   Overcast